Regional Weather Roundup
Issued by NWS Cleveland, OH

Home | Current Version | Previous Version | Text Only | Print | Product List | Glossary Off
Versions: 1 2 3 4 5 6 7 8 9 10 11 12 13 14 15 16 17 18 19 20 21 22 23 24 25 26 27 28 29 30 31 32 33 34 35 36 37 38 39 40 41 42 43 44 45 46 47 48 49 50

075
ASUS41 KCLE 220810
RWRCLE
OHIO REGIONAL WEATHER ROUNDUP
NATIONAL WEATHER SERVICE WILMINGTON, OH
400 AM EDT FRI MAY 22 2015

NOTE: "FAIR" INDICATES FEW OR NO CLOUDS BELOW 12,000 FEET WITH NO
SIGNIFICANT WEATHER AND/OR OBSTRUCTIONS TO VISIBILITY.

OHZ001>008-015>018-024>027-034-035-043-044-220900-
   NORTHWEST OHIO

CITY           SKY/WX    TMP DP  RH WIND       PRES   REMARKS
DEFIANCE       MOCLDY    48  39  71 SW3       30.05R
FINDLAY        PTCLDY    47  39  74 SW7       30.04S
TOLEDO EXPRESS CLOUDY    52  37  56 W10       30.02S
TOLEDO EXEC    CLOUDY    52  38  58 SW9       30.03S
LIMA           CLEAR     48  38  68 SW8       30.07R
$$

OHZ009>014-019>023-028>033-038-089-220900-
   NORTHEAST OHIO

CITY           SKY/WX    TMP DP  RH WIND       PRES   REMARKS
CLE-HOPKINS    CLOUDY    50  37  61 SW7       30.04S
CLE-LAKEFRONT  CLOUDY    54  36  50 SW13      30.01R
CUY CO. ARPT   NOT AVBL
LORAIN-ELYRIA  CLOUDY    49  38  65 SW8       30.03S
ASHTABULA      MOCLDY    48  40  73 W5        30.00R
AKRON-CANTON   CLEAR     46  36  68 SW8       30.04S
WOOSTER        PTCLDY    42  36  79 SW3       30.05S
MANSFIELD      PTCLDY    44  37  76 SW6       30.05S
YOUNGSTOWN     MOCLDY    46  38  73 SW8       30.01S
$$

OHZ042-051>053-060>062-070>072-077>081-220900-
  SOUTHWEST OHIO

CITY           SKY/WX    TMP DP  RH WIND       PRES   REMARKS
CINC-COVINGTON CLEAR     44  41  89 S5        30.13S
CINC-LUNKEN    CLEAR     40  40 100 CALM      30.15S
HAMILTON       CLEAR     42  41  96 CALM      30.13S
DAYTON         CLEAR     46  41  82 SW8       30.10S
WRIGHT-PAT AFB CLEAR     45  40  85 SW5       30.10S
DAYTON GENERAL CLEAR     45  41  86 SW5       30.11S
WILMINGTON     CLEAR     42  38  85 SW6       30.11F
$$

OHZ036-037-039>041-045>050-054>059-063>069-073>076-082>088-220900-
  CENTRAL AND SOUTHEAST OHIO

CITY           SKY/WX    TMP DP  RH WIND       PRES   REMARKS
COLUMBUS       CLEAR     44  40  85 CALM      30.09S
OSU AIRPORT    CLEAR     45  39  79 W6        30.09R
BOLTON FIELD   NOT AVBL
RICKENBACK AFB CLEAR     43  40  88 S6        30.10S
NEWARK         CLEAR     42  39  89 CALM      30.09S
MARION         CLEAR     45  37  73 SW8       30.07S
LANCASTER      CLEAR     48  40  73 SW8       30.10S
ZANESVILLE     CLEAR     42  38  85 S5        30.09R
NEW PHILLY     CLEAR     42  38  85 E3        30.08R
$$



USA.gov is the U.S. government's official web portal to all federal, state and local government web resources and services.